This is the latest recevied weather packets stored in our database for station/object LZ2SLL-13. If no packets are shown the sender has not sent any weather packets the latest 1 day(s).
| Time | Temp. | Humidity | Pressure | Rain* | Wind** | Luminosity | Snow |
|---|---|---|---|---|---|---|---|
| 1778027978 | 12.78° C | 47% | - | 0 mm | 0.89 m/s, 298° | 0 W/m² | - |
| 1778027677 | 12.78° C | 48% | - | 0 mm | 0.45 m/s, 302° | 0 W/m² | - |
| 1778027376 | 12.78° C | 47% | - | 0 mm | 0.89 m/s, 321° | 0 W/m² | - |
| 1778027075 | 12.78° C | 47% | - | 0 mm | 0.89 m/s, 287° | 0 W/m² | - |
| 1778026775 | 12.78° C | 48% | - | 0 mm | 0.89 m/s, 289° | 0 W/m² | - |
| 1778026474 | 12.22° C | 48% | - | 0 mm | 1.34 m/s, 331° | 0 W/m² | - |
| 1778026173 | 12.78° C | 47% | - | 0 mm | 1.34 m/s, 304° | 0 W/m² | - |
| 1778025872 | 12.78° C | 47% | - | 0 mm | 0.89 m/s, 339° | 0 W/m² | - |
| 1778025572 | 12.78° C | 47% | - | 0 mm | 0.89 m/s, 349° | 0 W/m² | - |
| 1778025271 | 12.78° C | 46% | - | 0 mm | 0.89 m/s, 14° | 0 W/m² | - |
| 1778024970 | 12.78° C | 46% | - | 0 mm | 0.45 m/s, 353° | 0 W/m² | - |
| 1778024670 | 12.78° C | 46% | - | 0 mm | 0.89 m/s, 0° | 0 W/m² | - |
| 1778024369 | 12.78° C | 45% | - | 0 mm | 0.89 m/s, 327° | 0 W/m² | - |
| 1778024068 | 12.78° C | 45% | - | 0 mm | 0.89 m/s, 325° | 0 W/m² | - |
| 1778023768 | 12.78° C | 47% | - | 0 mm | 0.89 m/s, 321° | 0 W/m² | - |
| 1778023467 | 12.22° C | 48% | - | 0 mm | 1.79 m/s, 317° | 0 W/m² | - |
| 1778023166 | 11.67° C | 52% | - | 0 mm | 0.45 m/s, 171° | 0 W/m² | - |
| 1778022866 | 11.67° C | 53% | - | 0 mm | 0.45 m/s, 37° | 0 W/m² | - |
| 1778022565 | 11.67° C | 53% | - | 0 mm | 0.45 m/s, 130° | 0 W/m² | - |
| 1778021963 | 12.78° C | 49% | - | 0 mm | 0.45 m/s, 4° | 0 W/m² | - |
| 1778021663 | 12.78° C | 48% | - | 0 mm | 0.89 m/s, 316° | 0 W/m² | - |
| 1778021054 | 12.78° C | 48% | - | 0 mm | 0.89 m/s, 343° | 0 W/m² | - |
| 1778020753 | 12.78° C | 49% | - | 0 mm | 0 m/s | 0 W/m² | - |
| 1778020452 | 12.78° C | 47% | - | 0 mm | 1.34 m/s, 349° | 0 W/m² | - |
| 1778020151 | 12.78° C | 47% | - | 0 mm | 0.45 m/s, 43° | 0 W/m² | - |
* Rain latest hour (hover to see other rain measurements)
** Current wind speed in m/s (hover to see current wind gust speed)